Location: *
(45.9500°N, 9.0833°E)
Time: 17:36:33
(UTC+00:00)

SL-4 R/B - Pass Details

Date: 03 March 2021
Orbit: 428 x 663 km, 51.6° (Epoch: 15 April)

Event Time Altitude Azimuth Distance (km) Brightness Sun altitude
Rises 18:11:34 0° 292° (WNW) 2,502 6.9 -11.0°
Reaches altitude 10° 18:13:54 10° 301° (WNW) 1,594 5.4 -11.4°
Maximum altitude 18:17:11 34° 9° (N) 747 2.6 -11.9°
Enters shadow 18:19:15 18° 66° (ENE) 1,147 3.1 -12.3°
